Regional Weather Roundup
Issued by NWS

Home | Current Version | Previous Version | Text Only | Print | Product List | Glossary On
Versions: 1 2 3 4 5 6 7 8 9 10 11 12 13 14 15 16 17 18 19 20 21 22 23 24 25 26 27 28 29 30 31 32 33 34 35 36 37 38 39 40 41 42 43 44 45 46 47 48 49 50
000
ASUS43 KMKX 161820
RWRWI

WISCONSIN REGIONAL WEATHER ROUNDUP
NATIONAL WEATHER SERVICE MILWAUKEE/SULLIVAN WI
100 PM CDT FRI APR 16 2021

NOTE: "FAIR" INDICATES FEW OR NO CLOUDS BELOW 12,000 FEET WITH NO
SIGNIFICANT WEATHER AND/OR OBSTRUCTIONS TO VISIBILITY.

WIZ001-002-006>008-014>016-023>028-161900-
NORTHWEST WISCONSIN

CITY           SKY/WX    TMP DP  RH WIND       PRES   REMARKS
SUPERIOR ARPT  SUNNY     46  31  55 NE8       30.08F
6HR MIN TEMP:  35; 6HR MAX TEMP:  46;

ASHLAND        SUNNY     46  26  45 NE12      30.08F
6HR MIN TEMP:  28; 6HR MAX TEMP:  47;

HAYWARD        SUNNY     50  24  36 NE14G21   30.04F
6HR MIN TEMP:  28; 6HR MAX TEMP:  50;

SIREN          SUNNY     54  24  31 NE9       30.05F
6HR MIN TEMP:  29; 6HR MAX TEMP:  54;

CUMBERLAND     SUNNY     52  23  32 N9        30.02F
RICE LAKE      SUNNY     53  26  36 N9        30.03F
6HR MIN TEMP:  30; 6HR MAX TEMP:  52;

CHETEK         SUNNY     55  29  37 NW6       30.02F
6HR MIN TEMP:  32; 6HR MAX TEMP:  55;

LADYSMITH        N/A     54  24  31 N9G16     30.02F
6HR MIN TEMP:  30; 6HR MAX TEMP:  54;

EAU CLAIRE     MOSUNNY   57  27  31 N9        30.00F
6HR MIN TEMP:  32; 6HR MAX TEMP:  58;

MENOMONIE      MOSUNNY   53  25  33 N9        30.01F
6HR MIN TEMP:  31; 6HR MAX TEMP:  53;

NEW RICHMOND   MOSUNNY   55  23  28 NE8G16    30.03F
6HR MIN TEMP:  33; 6HR MAX TEMP:  55;

OSCEOLA        MOSUNNY   53  28  37 NW7       30.06F
6HR MIN TEMP:  31; 6HR MAX TEMP:  53;

$$

WIZ003>005-009-010-017-018-161900-
NORTH CENTRAL WISCONSIN

CITY           SKY/WX    TMP DP  RH WIND       PRES   REMARKS
MANITOWISH WTR SUNNY     45  25  45 NW9       30.02F
6HR MIN TEMP:  28; 6HR MAX TEMP:  45;

ARBOR VITAE    SUNNY     49  35  59 N8G18     30.00F
6HR MIN TEMP:  27; 6HR MAX TEMP:  46;

WOODRUFF       SUNNY     49  35  59 N8G18     30.00F
6HR MIN TEMP:  27; 6HR MAX TEMP:  46;

RHINELANDER    SUNNY     46  22  38 NE10      30.00F
6HR MIN TEMP:  30; 6HR MAX TEMP:  46;

EAGLE RIVER    SUNNY     44  22  41 N6        30.00F
6HR MIN TEMP:  28; 6HR MAX TEMP:  45;

LAND O LAKES   SUNNY     44  26  49 N8        30.03S
6HR MIN TEMP:  29; 6HR MAX TEMP:  44;

PHILLIPS       SUNNY     49  24  38 N9G16     30.00F
6HR MIN TEMP:  24; 6HR MAX TEMP:  49;

TOMAHAWK       SUNNY     50  19  30 N7        30.00F
6HR MIN TEMP:  24; 6HR MAX TEMP:  50;

MEDFORD        SUNNY     51  22  31 N9G18     29.98F
6HR MIN TEMP:  27; 6HR MAX TEMP:  51;

MERRILL        SUNNY     52  21  30 NE13G20   29.97F
6HR MIN TEMP:  29; 6HR MAX TEMP:  52;

$$

WIZ029-030-035-036-043>047-161900-
CENTRAL WISCONSIN

CITY           SKY/WX    TMP DP  RH WIND       PRES   REMARKS
WAUSAU         SUNNY     56  20  24 N8        29.95F
6HR MIN TEMP:  33; 6HR MAX TEMP:  56;

MOSINEE        SUNNY     54  25  32 N8        29.98F
MARSHFIELD     SUNNY     56  26  31 N12       29.97F
6HR MIN TEMP:  31; 6HR MAX TEMP:  56;

STEVENS POINT  SUNNY     53  21  29 N13       29.97F
6HR MIN TEMP:  28; 6HR MAX TEMP:  54;

WAUPACA        SUNNY     57  23  26 NW6       29.96F
6HR MIN TEMP:  34; 6HR MAX TEMP:  58;

WAUTOMA        SUNNY     55  26  32 NW12G18   29.97F
6HR MIN TEMP:  32; 6HR MAX TEMP:  55;

WISC RAPIDS    SUNNY     56  25  30 MISG      29.97F
6HR MIN TEMP:  29; 6HR MAX TEMP:  56;

CAMP DOUGLAS   MOSUNNY   59  32  36 CALM      29.96F
$$

WIZ011>013-019>022-031-037>040-048>050-161900-
NORTHEAST WISCONSIN

CITY           SKY/WX    TMP DP  RH WIND       PRES   REMARKS
ANTIGO         SUNNY     50  22  33 NW12      29.98S
6HR MIN TEMP:  31; 6HR MAX TEMP:  50;

SHAWANO        SUNNY     54  32  43 E3        29.96F
6HR MIN TEMP:  33; 6HR MAX TEMP:  53;

OCONTO         MOSUNNY   48  34  57 CALM      29.98F
6HR MIN TEMP:  33; 6HR MAX TEMP:  49;

STURGEON BAY   SUNNY     45  34  65 N8        29.99F
6HR MIN TEMP:  35; 6HR MAX TEMP:  46;

GREEN BAY      SUNNY     50  35  56 W5        29.98F
6HR MIN TEMP:  33; 6HR MAX TEMP:  50;

MANITOWOC      SUNNY     45  35  68 N6        29.99F
6HR MIN TEMP:  35; 6HR MAX TEMP:  45;

APPLETON       MOSUNNY   52  25  35 NE10G22   29.96F
CLINTONVILLE   SUNNY     55  22  27 E5        29.97F
6HR MIN TEMP:  35; 6HR MAX TEMP:  55;

OSHKOSH        SUNNY     47  35  63 E7        29.97F
6HR MIN TEMP:  35; 6HR MAX TEMP:  48;

$$

WIZ032>034-041-042-053>061-161900-
SOUTHWEST WISCONSIN

CITY           SKY/WX    TMP DP  RH WIND       PRES   REMARKS
LA CROSSE      PTSUNNY   57  38  48 W8        29.98F
6HR MIN TEMP:  33; 6HR MAX TEMP:  58;

SPARTA           N/A     57  33  39 NW6       29.98F
6HR MIN TEMP:  25; 6HR MAX TEMP:  57;

VIROQUA        PTSUNNY   56  37  49 NW8       29.97F
6HR MIN TEMP:  33; 6HR MAX TEMP:  56;

BOSCOBEL       PTSUNNY   58  31  35 VRB5      29.97F
6HR MIN TEMP:  33; 6HR MAX TEMP:  61;

PRAIRIE DU CHI MOSUNNY   58  33  39 W14       29.98F
6HR MIN TEMP:  37; 6HR MAX TEMP:  58;

PLATTEVILLE    SUNNY     56  35  43 NE6G16    29.98F
6HR MIN TEMP:  38; 6HR MAX TEMP:  56;

$$

WIZ056-057-062-063-064-067-068-161900-
SOUTH CENTRAL WISCONSIN

CITY           SKY/WX    TMP DP  RH WIND       PRES   REMARKS
REEDSBURG      MOSUNNY   55  31  40 N7        29.96F
6HR MIN TEMP:  32; 6HR MAX TEMP:  56;

BARABOO/DELLS  MOSUNNY   53  27  36 N6        29.95F
6HR MIN TEMP:  29; 6HR MAX TEMP:  54;

LONE ROCK      PTSUNNY   57  32  38 NW8G18    29.97F
6HR MIN TEMP:  32; 6HR MAX TEMP:  57;

MINERAL POINT  MOSUNNY   55  28  35 N7        29.97F
MADISON        PTSUNNY   55  27  34 N10G17    29.95F
6HR MIN TEMP:  32; 6HR MAX TEMP:  55;

MIDDLETON      MOSUNNY   57  28  33 N12G17    29.97F
6HR MIN TEMP:  35; 6HR MAX TEMP:  57;

WATERTOWN      MOSUNNY   54  29  39 N10G17    29.95F
6HR MIN TEMP:  35; 6HR MAX TEMP:  54;

MONROE         PTSUNNY   52  24  33 N10G18    29.96F
6HR MIN TEMP:  39; 6HR MAX TEMP:  55;

JANESVILLE     PTSUNNY   55  23  28 N12G17    29.96F
$$

WIZ051-052-058>065-066-070>072-161900-
SOUTHEAST WISCONSIN

CITY           SKY/WX    TMP DP  RH WIND       PRES   REMARKS
MILWAUKEE      MOSUNNY   46  37  71 E9        29.97F
6HR MIN TEMP:  38; 6HR MAX TEMP:  48;

WAUKESHA       SUNNY     54  25  32 NW10      29.96F
MILWAUKEE/TIMM SUNNY     48  34  57 E9        29.98F
RACINE         SUNNY     48  38  68 E10       29.98F
6HR MIN TEMP:  38; 6HR MAX TEMP:  49;

KENOSHA        MOSUNNY   50  38  63 E12       29.96F
6HR MIN TEMP:  37; 6HR MAX TEMP:  54;

FOND DU LAC    SUNNY     51  35  54 NE10      29.97F
6HR MIN TEMP:  37; 6HR MAX TEMP:  51;

SHEBOYGAN      SUNNY     48  36  63 NE9       29.97F
6HR MIN TEMP:  35; 6HR MAX TEMP:  50;

WEST BEND      SUNNY     52  28  40 NW7       29.96F
JUNEAU         SUNNY     53  29  39 N9G18     29.96F
6HR MIN TEMP:  33; 6HR MAX TEMP:  52;

$$

LSZ147-162-161900-
LAKE SUPERIOR

STATION/POSITION TIME  TEMP    WIND        PRES    WAVE
                       AIR SEA DIR/SP/G            HT/PER
                 (UTC) (F)     (DEG/KT/KT) (MB)    (FT/S)
DEVILS ISLAND    1700   37      90/  4/  5 1020.3F
PORT WING        1640   38     340/  4/  6 1020.0F
SAXON HARBOR     1630   37     340/  4/  5 1019.3S
$$

LMZ867-665-643>646-161900-
LAKE MICHIGAN

STATION/POSITION TIME  TEMP    WIND        PRES    WAVE
                       AIR SEA DIR/SP/G            HT/PER
                 (UTC) (F)


USA.gov is the U.S. government's official web portal to all federal, state and local government web resources and services.